Regional Weather Roundup
Issued by NWS

Home | Current Version | Previous Version | Graphics & Text | Print | Product List | Glossary On
Versions: 1 2 3 4 5 6 7 8 9 10 11 12 13 14 15 16 17 18 19 20 21 22 23 24 25 26 27 28 29 30 31 32 33 34 35 36 37 38 39 40 41 42 43 44 45 46 47 48 49 50
000
ASUS44 KMEG 300310
RWRTN
TENNESSEE HOURLY STATE WEATHER ROUNDUP
NATIONAL WEATHER SERVICE MEMPHIS TN
1000 PM CDT WED JUL 29 2015

TNZ002-004-019-021-049-052-054-088>092-300400-
WEST TENNESSEE

CITY           SKY/WX    TMP DP  RH WIND       PRES   REMARKS
MEMPHIS INTL   PTCLDY    89  78  70 W5        30.01R HX 103
NWS MEMPHIS      N/A     85 N/A N/A MISG        N/A
JACKSON        PTCLDY    83  75  77 N7        30.02R THUNDER HX  90
DYERSBURG        N/A    N/A N/A N/A MISG        N/A
PARIS          PTCLDY    73  72  94 NE3       30.05R
$$

TNZ008-025-027-028-033-062-065-066-300400-
NORTH MIDDLE TENNESSEE

CITY           SKY/WX    TMP DP  RH WIND       PRES   REMARKS
NASHVILLE      MOCLDY    85  78  80 N9        30.03R HX  96
CLARKSVILLE    CLOUDY    74  72  93 CALM      30.04R
SMYRNA         PTCLDY    84  78  82 CALM      30.02R HX  94
CROSSVILLE     PTCLDY    79  73  82 NW5       30.12R
$$

TNZ061-075-076-078-094-096-097-300400-
SOUTH MIDDLE TENNESSEE

CITY           SKY/WX    TMP DP  RH WIND       PRES   REMARKS
FAYETTEVILLE   CLEAR     81  75  83 N3        30.05R
TULLAHOMA      CLEAR     81  75  83 NW3       30.06R
WINCHESTER     CLEAR     79  75  89 CALM      30.05R
MCMINNVILLE    CLEAR     79  79 100 CALM      30.05R
COLUMBIA       PTCLDY    82  82 100 NW3       30.02R HX  97
SHELBYVILLE    CLEAR     81  79  94 CALM      30.04S
$$

TNZ017-018-042-046-047-300400-
NORTHEAST TENNESSEE

CITY           SKY/WX    TMP DP  RH WIND       PRES   REMARKS
TRI CITIES     PTCLDY    77  73  87 NE3       30.04R
ELIZABETHTON   MOCLDY    73  72  94 CALM      30.06R
$$

TNZ012-013-036-069-073-074-300400-
CENTRAL EAST TENNESSEE

CITY           SKY/WX    TMP DP  RH WIND       PRES   REMARKS
KNOXVILLE      MOCLDY    82  74  76 CALM      30.02R
OAK RIDGE      PTCLDY    82  75  79 CALM      30.04R
GATLINBURG     CLEAR     77  72  83 CALM      30.03R
MORRISTOWN     CLEAR     79  73  83 CALM      30.05S
$$

TNZ083-085-099-300400-
SOUTHEAST TENNESSEE

CITY           SKY/WX    TMP DP  RH WIND       PRES   REMARKS
CHATTANOOGA    PTCLDY    82  73  74 NW5       30.02R
$$

SKY/WX REPORTED AS FAIR MEANS FEW OR NO CLOUDS BELOW
12 THOUSAND FEET.



USA.gov is the U.S. government's official web portal to all federal, state and local government web resources and services.